GW0092 Weather Reports


time (UTC)temp
C
wind
direction
speed
KPH
gust
KPH
rain 1hr
cm
rain 24hr
cm
rain mn
cm
humidity
%
barometer
mb
20260505081559 13 0 0.0 0.0 0.00 0.00 0.00 93 1013.5
20260505080049 13 0 0.0 1.6 0.00 0.00 0.00 93 1013.5
20260505074552 13 0 0.0 1.6 0.00 0.00 0.00 92 1013.5
20260505073053 13 0 0.0 1.6 0.00 0.00 0.00 93 1013.4
20260505071554 13 114 0.0 1.6 0.00 0.00 0.00 93 1013.4
20260505070051 14 0 0.0 3.2 0.00 0.00 0.00 93 1013.4
20260505064554 14 0 0.0 6.4 0.00 0.00 0.00 93 1013.3
20260505063056 14 129 0.0 1.6 0.00 0.00 0.00 93 1013.5
20260505061600 14 132 0.0 3.2 0.00 0.00 0.00 93 1013.4
20260505060059 14 142 0.0 3.2 0.00 0.00 0.00 94 1013.4
20260505054558 14 0 0.0 0.0 0.00 0.00 0.00 93 1013.5
20260505053107 14 0 0.0 0.0 0.00 0.00 0.00 93 1013.4
20260505051558 14 0 0.0 0.0 0.00 0.00 0.00 93 1013.4
20260505041553 15 158 0.0 3.2 0.00 0.00 0.00 90 1013.5
20260505040056 15 0 1.6 8.0 0.00 0.00 0.00 90 1013.4
20260505034550 15 142 1.6 3.2 0.00 0.00 0.00 90 1013.3
20260505033110 15 157 0.0 12.9 0.00 0.00 0.00 90 1013.3
20260505031556 15 181 1.6 4.8 0.00 0.00 0.00 90 1013.3
20260505030056 15 158 1.6 6.4 0.00 0.00 0.00 89 1013.3
20260505024604 15 127 1.6 17.7 0.00 0.00 0.00 88 1013.3
20260505023103 15 176 3.2 9.7 0.00 0.00 0.00 87 1013.3
20260505021553 15 166 3.2 19.3 0.00 0.00 0.00 87 1013.3
20260505020055 15 169 3.2 6.4 0.00 0.00 0.00 88 1013.4
20260505014552 15 165 1.6 8.0 0.00 0.00 0.00 88 1013.6
20260505013052 15 134 1.6 6.4 0.00 0.00 0.00 88 1013.6
20260505011558 15 150 0.0 3.2 0.00 0.00 0.00 88 1013.5
20260505010058 15 141 1.6 4.8 0.00 0.00 0.00 88 1013.4
20260505004558 15 117 3.2 8.0 0.00 0.00 0.00 89 1013.4
20260505003051 15 152 0.0 3.2 0.00 0.00 0.00 88 1013.3
20260505001553 15 156 3.2 6.4 0.00 0.00 0.00 87 1013.3
20260505000059 15 172 1.6 8.0 0.00 0.00 0.00 86 1013.2
20260504234615 15 110 1.6 8.0 0.00 0.00 0.00 85 1012.9
20260504233052 16 143 3.2 11.3 0.00 0.00 0.00 83 1012.9
20260504231601 16 113 3.2 9.7 0.00 0.00 0.00 81 1012.9
20260504230053 17 87 3.2 8.0 0.00 0.00 0.00 78 1013.0
20260504224600 17 105 1.6 17.7 0.00 0.00 0.00 78 1013.0
20260504223056 18 91 3.2 11.3 0.00 0.00 0.00 77 1013.0
20260504221602 18 88 1.6 4.8 0.00 0.00 0.00 76 1013.1
20260504220054 18 96 3.2 8.0 0.00 0.00 0.00 75 1013.0
20260504214603 18 187 3.2 12.9 0.00 0.00 0.00 74 1013.1
20260504213103 18 169 3.2 9.7 0.00 0.00 0.00 76 1013.2
20260504211553 18 84 3.2 14.5 0.00 0.00 0.00 74 1013.2
20260504204634 19 181 6.4 17.7 0.00 0.00 0.00 70 1013.1
20260504203054 20 184 4.8 17.7 0.00 0.00 0.00 69 1013.2
20260504201556 21 146 4.8 8.0 0.00 0.00 0.00 69 1013.0
20260504200057 21 184 4.8 20.9 0.00 0.00 0.00 65 1013.0
20260504194558 21 124 4.8 11.3 0.00 0.00 0.00 65 1013.1
20260504193055 21 180 4.8 12.9 0.00 0.00 0.00 66 1013.1
20260504191552 21 147 3.2 16.1 0.00 0.00 0.00 62 1013.1
20260504190059 21 26 1.6 11.3 0.00 0.00 0.00 62 1013.3
20260504184604 21 16 3.2 11.3 0.00 0.00 0.00 63 1013.4
20260504183059 21 179 1.6 11.3 0.00 0.00 0.00 63 1013.4
20260504181555 21 103 3.2 9.7 0.00 0.00 0.00 61 1013.7
20260504180054 21 265 0.0 8.0 0.00 0.00 0.00 56 1013.7
20260504174553 22 63 8.0 16.1 0.00 0.00 0.00 40 1013.8
20260504173052 21 146 1.6 9.7 0.00 0.00 0.00 56 1014.0
20260504171553 21 150 3.2 11.3 0.00 0.00 0.00 62 1014.1
20260504100103 11 131 0.0 8.0 0.00 0.00 0.00 84 1016.7